Tracking 32954 objects as of 20-Jan-2026
HD Live streaming from Space Station
objects crossing your sky now

QIANFAN-30

Track QIANFAN-30 now!
10-day predictions
QIANFAN-30 is classified as:


NORAD ID: 61563
Int'l Code: 2024-185M
Perigee: 1,075.2 km
Apogee: 1,083.6 km
Inclination: 89.0 °
Period: 106.7 minutes
Semi major axis: 7450 km
RCS: Unknown
Launch date: October 15, 2024
Source: People's Republic of China (PRC)
Launch site: Taiyaun Space Center, China (TSC)
Your satellite tracking list
Your tracking list is empty




NASA's NSSDC Master Catalog

Two Line Element Set (TLE):
1 61563U 24185M   26019.58834053  .00000170  00000-0  24933-3 0  9997
2 61563  88.9774  76.9427 0005615 289.0170  71.0372 13.50002946 73173
Source of the keplerian elements: AFSPC